Weather Roundup
Issued by NWS Chicago, IL

Home | Current Version | Previous Version | Text Only | Print | Product List | Glossary Off
Versions: 1 2 3 4 5 6 7 8 9 10 11 12 13 14 15 16 17 18 19 20 21 22 23 24 25 26 27 28 29 30 31 32 33 34 35 36 37 38 39 40 41 42 43 44 45 46 47 48 49 50

000
NZUS59 KLOT 180500
HRRLOT

CHICAGO AREA WEATHER ROUNDUP
NATIONAL WEATHER SERVICE CHICAGO/ROMEOVILLE IL
1200 AM CDT FRI APR 18 2014

NOTE: "FAIR" INDICATES FEW OR NO CLOUDS BELOW 12,000 FEET WITH NO
SIGNIFICANT WEATHER AND/OR OBSTRUCTIONS TO VISIBILITY.

* THESE STATIONS ARE NOT UNDER NWS QUALITY CONTROL. THEY ALSO MAY NOT
  REPORT WEATHER SUCH AS PRECIPITATION OR FOG.

ILZ005-006-012>014-019>023-180600-
NORTHEAST ILLINOIS

CITY           SKY/WX    TMP DP  RH WIND       PRES   REMARKS
OHARE          CLOUDY    49  37  63 E6        30.24S
MIDWAY         CLOUDY    53  39  59 W6        30.25S
AURORA         CLOUDY    43  38  82 CALM      30.25S
WAUKEGAN       MOCLDY    41  36  82 CALM      30.24S
DUPAGE AIRPORT CLOUDY    46  38  73 W5        30.24S
WHEELING       MOCLDY    47  37  68 SE3       30.26S
NORTHERLY IS     N/A     46  37  71 MISG        N/A
$$

WIZ051-052-058>065-066-070>072-180600-
SOUTHEAST WISCONSIN

CITY           SKY/WX    TMP DP  RH WIND       PRES   REMARKS
MILWAUKEE      CLOUDY    45  36  70 N6        30.27R
KENOSHA*       MOCLDY    43  36  76 CALM      30.25R
RACINE*        CLOUDY    40  36  86 N6        30.27R
$$

INZ001>003-010>013-019-020-180600-
NORTHWEST INDIANA

CITY           SKY/WX    TMP DP  RH WIND       PRES   REMARKS
GARY*          LGT RAIN  52  39  61 CALM      30.26R
MICHIGAN CITY* NOT AVBL
RENSSELAER*    NOT AVBL
VALPARAISO     LGT RAIN  51  40  65 W6        30.26R
$$

LMZ740>746-180600-
SOUTHERN LAKE MICHIGAN

STATION/POSITION TIME  SKY/WX   TEMP WIND        PRES    VSBY
                                AIR  DIR/SP/G
                 (UTC)          (F)  (DEG/KT/KT) (MB)    (MI)
HARRISON CRIB    0400            45   70/ 10/ 12   N/A
BURNHAM HARBOR   0500            46   40/  2/  7   N/A
CALUMET HARBOR   0400            46   10/  2/  4 1025.1R
BURNS HARBOR     NOT AVBL
MICHIGAN CITY    0400            46   30/  5/  6   N/A
$$

ABBREVIATIONS USED IN REMARKS
   TC - TEMPERATURE IN CELSIUS
  WCI - WIND CHILL INDEX
   HX - HEAT INDEX
  VSB - VISIBILITY
$$


USA.gov is the U.S. government's official web portal to all federal, state and local government web resources and services.